Year,Month,Day,Hour,Minute,Value (Times are PST for temperature in C)
2009,01,17,00,00,-1.70
2009,01,17,00,01,-1.70
2009,01,17,00,02,-1.70
2009,01,17,00,03,-1.70
2009,01,17,00,04,-1.70
2009,01,17,00,05,-1.70
2009,01,17,00,06,-1.70
2009,01,17,00,07,-1.70
2009,01,17,00,08,-1.70
2009,01,17,00,09,-1.70
2009,01,17,00,10,-1.70
2009,01,17,00,11,-1.70
2009,01,17,00,12,-1.70
2009,01,17,00,13,-1.70
2009,01,17,00,14,-1.70
2009,01,17,00,15,-1.70
2009,01,17,00,16,-1.70
2009,01,17,00,17,-1.70
2009,01,17,00,18,-1.60
2009,01,17,00,19,-1.60
2009,01,17,00,20,-1.60
2009,01,17,00,21,-1.60
2009,01,17,00,22,-1.60
2009,01,17,00,23,-1.60
2009,01,17,00,24,-1.60
2009,01,17,00,25,-1.60
2009,01,17,00,26,-1.60
2009,01,17,00,27,-1.60
2009,01,17,00,28,-1.60
2009,01,17,00,29,-1.60
2009,01,17,00,30,-1.60
2009,01,17,00,31,-1.60
2009,01,17,00,32,-1.60
2009,01,17,00,33,-1.60
2009,01,17,00,34,-1.60
2009,01,17,00,35,-1.60
2009,01,17,00,36,-1.60
2009,01,17,00,37,-1.60
2009,01,17,00,38,-1.60
2009,01,17,00,39,-1.60
2009,01,17,00,40,-1.60
2009,01,17,00,41,-1.60
2009,01,17,00,42,-1.60
2009,01,17,00,43,-1.60
2009,01,17,00,44,-1.60
2009,01,17,00,45,-1.60
2009,01,17,00,46,-1.60
2009,01,17,00,47,-1.60
2009,01,17,00,48,-1.60
2009,01,17,00,49,-1.60
2009,01,17,00,50,-1.60
2009,01,17,00,51,-1.60
2009,01,17,00,52,-1.60
2009,01,17,00,53,-1.60
2009,01,17,00,54,-1.60
2009,01,17,00,55,-1.70
2009,01,17,00,56,-1.70
2009,01,17,00,57,-1.70
2009,01,17,00,58,-1.70
2009,01,17,00,59,-1.70
2009,01,17,01,00,-1.70
2009,01,17,01,01,-1.70
2009,01,17,01,02,-1.80
2009,01,17,01,03,-1.80
2009,01,17,01,04,-1.80
2009,01,17,01,05,-1.80
2009,01,17,01,06,-1.80
2009,01,17,01,07,-1.80
2009,01,17,01,08,-1.80
2009,01,17,01,09,-1.80
2009,01,17,01,10,-1.80
2009,01,17,01,11,-1.80
2009,01,17,01,12,-1.80
2009,01,17,01,13,-1.80
2009,01,17,01,14,-1.80
2009,01,17,01,15,-1.80
2009,01,17,01,16,-1.80
2009,01,17,01,17,-1.80
2009,01,17,01,18,-1.80
2009,01,17,01,19,-1.80
2009,01,17,01,20,-1.80
2009,01,17,01,21,-1.90
2009,01,17,01,22,-1.90
2009,01,17,01,23,-1.90
2009,01,17,01,24,-1.90
2009,01,17,01,25,-1.90
2009,01,17,01,26,-1.90
2009,01,17,01,27,-1.90
2009,01,17,01,28,-1.90
2009,01,17,01,29,-1.90
2009,01,17,01,30,-1.90
2009,01,17,01,31,-1.90
2009,01,17,01,32,-1.90
2009,01,17,01,33,-1.90
2009,01,17,01,34,-1.80
2009,01,17,01,35,-1.80
2009,01,17,01,36,-1.80
2009,01,17,01,37,-1.80
2009,01,17,01,38,-1.80
2009,01,17,01,39,-1.80
2009,01,17,01,40,-1.80
2009,01,17,01,41,-1.70
2009,01,17,01,42,-1.70
2009,01,17,01,43,-1.70
2009,01,17,01,44,-1.70
2009,01,17,01,45,-1.70
2009,01,17,01,46,-1.70
2009,01,17,01,47,-1.70
2009,01,17,01,48,-1.70
2009,01,17,01,49,-1.70
2009,01,17,01,50,-1.70
2009,01,17,01,51,-1.70
2009,01,17,01,52,-1.70
2009,01,17,01,53,-1.70
2009,01,17,01,54,-1.80
2009,01,17,01,55,-1.80
2009,01,17,01,56,-1.80
2009,01,17,01,57,-1.80
2009,01,17,01,58,-1.80
2009,01,17,01,59,-1.80
2009,01,17,02,00,-1.80
2009,01,17,02,01,-1.80
2009,01,17,02,02,-1.80
2009,01,17,02,03,-1.80
2009,01,17,02,04,-1.80
2009,01,17,02,05,-1.80
2009,01,17,02,06,-1.80
2009,01,17,02,07,-1.90
2009,01,17,02,08,-1.90
2009,01,17,02,09,-1.90
2009,01,17,02,10,-1.90
2009,01,17,02,11,-1.90
2009,01,17,02,12,-1.90
2009,01,17,02,13,-1.90
2009,01,17,02,14,-1.90
2009,01,17,02,15,-2.00
2009,01,17,02,16,-2.00
2009,01,17,02,17,-2.00
2009,01,17,02,18,-2.00
2009,01,17,02,19,-2.00
2009,01,17,02,20,-2.00
2009,01,17,02,21,-2.00
2009,01,17,02,22,-2.00
2009,01,17,02,23,-2.00
2009,01,17,02,24,-2.10
2009,01,17,02,25,-2.10
2009,01,17,02,26,-2.10
2009,01,17,02,27,-2.10
2009,01,17,02,28,-2.10
2009,01,17,02,29,-2.10
2009,01,17,02,30,-2.10
2009,01,17,02,31,-2.10
2009,01,17,02,32,-2.10
2009,01,17,02,33,-2.10
2009,01,17,02,34,-2.10
2009,01,17,02,35,-2.20
2009,01,17,02,36,-2.20
2009,01,17,02,37,-2.20
2009,01,17,02,38,-2.20
2009,01,17,02,39,-2.20
2009,01,17,02,40,-2.30
2009,01,17,02,41,-2.30
2009,01,17,02,42,-2.30
2009,01,17,02,43,-2.30
2009,01,17,02,44,-2.30
2009,01,17,02,45,-2.30
2009,01,17,02,46,-2.30
2009,01,17,02,47,-2.30
2009,01,17,02,48,-2.30
2009,01,17,02,49,-2.30
2009,01,17,02,50,-2.30
2009,01,17,02,51,-2.30
2009,01,17,02,52,-2.30
2009,01,17,02,53,-2.20
2009,01,17,02,54,-2.20
2009,01,17,02,55,-2.20
2009,01,17,02,56,-2.20
2009,01,17,02,57,-2.20
2009,01,17,02,58,-2.20
2009,01,17,02,59,-2.20
2009,01,17,03,00,-2.20
2009,01,17,03,01,-2.20
2009,01,17,03,02,-2.20
2009,01,17,03,03,-2.20
2009,01,17,03,04,-2.30
2009,01,17,03,05,-2.30
2009,01,17,03,06,-2.30
2009,01,17,03,07,-2.30
2009,01,17,03,08,-2.30
2009,01,17,03,09,-2.30
2009,01,17,03,10,-2.30
2009,01,17,03,11,-2.30
2009,01,17,03,12,-2.30
2009,01,17,03,13,-2.30
2009,01,17,03,14,-2.30
2009,01,17,03,15,-2.30
2009,01,17,03,16,-2.30
2009,01,17,03,17,-2.30
2009,01,17,03,18,-2.30
2009,01,17,03,19,-2.30
2009,01,17,03,20,-2.30
2009,01,17,03,21,-2.30
2009,01,17,03,22,-2.30
2009,01,17,03,23,-2.30
2009,01,17,03,24,-2.30
2009,01,17,03,25,-2.30
2009,01,17,03,26,-2.30
2009,01,17,03,27,-2.20
2009,01,17,03,28,-2.20
2009,01,17,03,29,-2.20
2009,01,17,03,30,-2.20
2009,01,17,03,31,-2.20
2009,01,17,03,32,-2.20
2009,01,17,03,33,-2.20
2009,01,17,03,34,-2.20
2009,01,17,03,35,-2.20
2009,01,17,03,36,-2.20
2009,01,17,03,37,-2.20
2009,01,17,03,38,-2.20
2009,01,17,03,39,-2.20
2009,01,17,03,40,-2.20
2009,01,17,03,41,-2.20
2009,01,17,03,42,-2.20
2009,01,17,03,43,-2.20
2009,01,17,03,44,-2.20
2009,01,17,03,45,-2.20
2009,01,17,03,46,-2.30
2009,01,17,03,47,-2.30
2009,01,17,03,48,-2.30
2009,01,17,03,49,-2.30
2009,01,17,03,50,-2.30
2009,01,17,03,51,-2.30
2009,01,17,03,52,-2.30
2009,01,17,03,53,-2.30
2009,01,17,03,54,-2.30
2009,01,17,03,55,-2.30
2009,01,17,03,56,-2.30
2009,01,17,03,57,-2.30
2009,01,17,03,58,-2.30
2009,01,17,03,59,-2.30
2009,01,17,04,00,-2.20
2009,01,17,04,01,-2.20
2009,01,17,04,02,-2.20
2009,01,17,04,03,-2.20
2009,01,17,04,04,-2.10
2009,01,17,04,05,-2.10
2009,01,17,04,06,-2.10
2009,01,17,04,07,-2.10
2009,01,17,04,08,-2.10
2009,01,17,04,09,-2.10
2009,01,17,04,10,-2.10
2009,01,17,04,11,-2.10
2009,01,17,04,12,-2.10
2009,01,17,04,13,-2.10
2009,01,17,04,14,-2.00
2009,01,17,04,15,-2.00
2009,01,17,04,16,-2.00
2009,01,17,04,17,-2.10
2009,01,17,04,18,-2.10
2009,01,17,04,19,-2.10
2009,01,17,04,20,-2.10
2009,01,17,04,21,-2.10
2009,01,17,04,22,-2.10
2009,01,17,04,23,-2.10
2009,01,17,04,24,-2.10
2009,01,17,04,25,-2.10
2009,01,17,04,26,-2.10
2009,01,17,04,27,-2.10
2009,01,17,04,28,-2.10
2009,01,17,04,29,-2.10
2009,01,17,04,30,-2.10
2009,01,17,04,31,-2.10
2009,01,17,04,32,-2.10
2009,01,17,04,33,-2.10
2009,01,17,04,34,-2.10
2009,01,17,04,35,-2.10
2009,01,17,04,36,-2.10
2009,01,17,04,37,-2.10
2009,01,17,04,38,-2.10
2009,01,17,04,39,-2.20
2009,01,17,04,40,-2.20
2009,01,17,04,41,-2.20
2009,01,17,04,42,-2.20
2009,01,17,04,43,-2.20
2009,01,17,04,44,-2.20
2009,01,17,04,45,-2.20
2009,01,17,04,46,-2.20
2009,01,17,04,47,-2.30
2009,01,17,04,48,-2.30
2009,01,17,04,49,-2.30
2009,01,17,04,50,-2.30
2009,01,17,04,51,-2.30
2009,01,17,04,52,-2.30
2009,01,17,04,53,-2.30
2009,01,17,04,54,-2.30
2009,01,17,04,55,-2.30
2009,01,17,04,56,-2.30
2009,01,17,04,57,-2.40
2009,01,17,04,58,-2.40
2009,01,17,04,59,-2.40
2009,01,17,05,00,-2.40
2009,01,17,05,01,-2.40
2009,01,17,05,02,-2.40
2009,01,17,05,03,-2.40
2009,01,17,05,04,-2.40
2009,01,17,05,05,-2.40
2009,01,17,05,06,-2.40
2009,01,17,05,07,-2.40
2009,01,17,05,08,-2.40
2009,01,17,05,09,-2.40
2009,01,17,05,10,-2.40
2009,01,17,05,11,-2.40
2009,01,17,05,12,-2.40
2009,01,17,05,13,-2.40
2009,01,17,05,14,-2.40
2009,01,17,05,15,-2.40
2009,01,17,05,16,-2.50
2009,01,17,05,17,-2.50
2009,01,17,05,18,-2.50
2009,01,17,05,19,-2.50
2009,01,17,05,20,-2.50
2009,01,17,05,21,-2.50
2009,01,17,05,22,-2.50
2009,01,17,05,23,-2.40
2009,01,17,05,24,-2.40
2009,01,17,05,25,-2.40
2009,01,17,05,26,-2.40
2009,01,17,05,27,-2.40
2009,01,17,05,28,-2.40
2009,01,17,05,29,-2.40
2009,01,17,05,30,-2.40
2009,01,17,05,31,-2.40
2009,01,17,05,32,-2.40
2009,01,17,05,33,-2.40
2009,01,17,05,34,-2.40
2009,01,17,05,35,-2.40
2009,01,17,05,36,-2.40
2009,01,17,05,37,-2.30
2009,01,17,05,38,-2.30
2009,01,17,05,39,-2.30
2009,01,17,05,40,-2.30
2009,01,17,05,41,-2.30
2009,01,17,05,42,-2.30
2009,01,17,05,43,-2.30
2009,01,17,05,44,-2.30
2009,01,17,05,45,-2.30
2009,01,17,05,46,-2.30
2009,01,17,05,47,-2.30
2009,01,17,05,48,-2.30
2009,01,17,05,49,-2.30
2009,01,17,05,50,-2.30
2009,01,17,05,51,-2.30
2009,01,17,05,52,-2.30
2009,01,17,05,53,-2.30
2009,01,17,05,54,-2.30
2009,01,17,05,55,-2.30
2009,01,17,05,56,-2.30
2009,01,17,05,57,-2.30
2009,01,17,05,58,-2.30
2009,01,17,05,59,-2.40
2009,01,17,06,00,-2.40
2009,01,17,06,01,-2.40
2009,01,17,06,02,-2.40
2009,01,17,06,03,-2.40
2009,01,17,06,04,-2.40
2009,01,17,06,05,-2.40
2009,01,17,06,06,-2.40
2009,01,17,06,07,-2.50
2009,01,17,06,08,-2.50
2009,01,17,06,09,-2.50
2009,01,17,06,10,-2.50
2009,01,17,06,11,-2.50
2009,01,17,06,12,-2.50
2009,01,17,06,13,-2.50
2009,01,17,06,14,-2.50
2009,01,17,06,15,-2.50
2009,01,17,06,16,-2.50
2009,01,17,06,17,-2.40
2009,01,17,06,18,-2.40
2009,01,17,06,19,-2.40
2009,01,17,06,20,-2.40
2009,01,17,06,21,-2.40
2009,01,17,06,22,-2.40
2009,01,17,06,23,-2.40
2009,01,17,06,24,-2.40
2009,01,17,06,25,-2.40
2009,01,17,06,26,-2.40
2009,01,17,06,27,-2.40
2009,01,17,06,28,-2.40
2009,01,17,06,29,-2.40
2009,01,17,06,30,-2.40
2009,01,17,06,31,-2.40
2009,01,17,06,32,-2.40
2009,01,17,06,33,-2.40
2009,01,17,06,34,-2.40
2009,01,17,06,35,-2.40
2009,01,17,06,36,-2.40
2009,01,17,06,37,-2.40
2009,01,17,06,38,-2.40
2009,01,17,06,39,-2.40
2009,01,17,06,40,-2.40
2009,01,17,06,41,-2.30
2009,01,17,06,42,-2.30
2009,01,17,06,43,-2.30
2009,01,17,06,44,-2.30
2009,01,17,06,45,-2.30
2009,01,17,06,46,-2.30
2009,01,17,06,47,-2.30
2009,01,17,06,48,-2.20
2009,01,17,06,49,-2.20
2009,01,17,06,50,-2.20
2009,01,17,06,51,-2.20
2009,01,17,06,52,-2.20
2009,01,17,06,53,-2.20
2009,01,17,06,54,-2.20
2009,01,17,06,55,-2.20
2009,01,17,06,56,-2.20
2009,01,17,06,57,-2.20
2009,01,17,06,58,-2.20
2009,01,17,06,59,-2.20
2009,01,17,07,00,-2.20
2009,01,17,07,01,-2.20
2009,01,17,07,02,-2.20
2009,01,17,07,03,-2.20
2009,01,17,07,04,-2.20
2009,01,17,07,05,-2.20
2009,01,17,07,06,-2.20
2009,01,17,07,07,-2.20
2009,01,17,07,08,-2.30
2009,01,17,07,09,-2.30
2009,01,17,07,10,-2.30
2009,01,17,07,11,-2.30
2009,01,17,07,12,-2.20
2009,01,17,07,13,-2.20
2009,01,17,07,14,-2.20
2009,01,17,07,15,-2.10
2009,01,17,07,16,-2.10
2009,01,17,07,17,-2.10
2009,01,17,07,18,-2.00
2009,01,17,07,19,-2.00
2009,01,17,07,20,-2.00
2009,01,17,07,21,-1.90
2009,01,17,07,22,-1.90
2009,01,17,07,23,-1.90
2009,01,17,07,24,-1.90
2009,01,17,07,25,-1.90
2009,01,17,07,26,-1.90
2009,01,17,07,27,-1.90
2009,01,17,07,28,-1.90
2009,01,17,07,29,-2.00
2009,01,17,07,30,-2.00
2009,01,17,07,31,-2.00
2009,01,17,07,32,-2.00
2009,01,17,07,33,-2.00
2009,01,17,07,34,-2.10
2009,01,17,07,35,-2.10
2009,01,17,07,36,-2.10
2009,01,17,07,37,-2.10
2009,01,17,07,38,-2.10
2009,01,17,07,39,-2.10
2009,01,17,07,40,-2.10
2009,01,17,07,41,-2.10
2009,01,17,07,42,-2.20
2009,01,17,07,43,-2.20
2009,01,17,07,44,-2.20
2009,01,17,07,45,-2.20
2009,01,17,07,46,-2.20
2009,01,17,07,47,-2.30
2009,01,17,07,48,-2.30
2009,01,17,07,49,-2.30
2009,01,17,07,50,-2.30
2009,01,17,07,51,-2.30
2009,01,17,07,52,-2.30
2009,01,17,07,53,-2.30
2009,01,17,07,54,-2.30
2009,01,17,07,55,-2.30
2009,01,17,07,56,-2.30
2009,01,17,07,57,-2.30
2009,01,17,07,58,-2.40
2009,01,17,07,59,-2.40
2009,01,17,08,00,-2.40
2009,01,17,08,01,-2.40
2009,01,17,08,02,-2.40
2009,01,17,08,03,-2.40
2009,01,17,08,04,-2.40
2009,01,17,08,05,-2.40
2009,01,17,08,06,-2.40
2009,01,17,08,07,-2.50
2009,01,17,08,08,-2.50
2009,01,17,08,09,-2.50
2009,01,17,08,10,-2.50
2009,01,17,08,11,-2.50
2009,01,17,08,12,-2.50
2009,01,17,08,13,-2.50
2009,01,17,08,14,-2.50
2009,01,17,08,15,-2.60
2009,01,17,08,16,-2.60
2009,01,17,08,17,-2.60
2009,01,17,08,18,-2.50
2009,01,17,08,19,-2.60
2009,01,17,08,20,-2.60
2009,01,17,08,21,-2.60
2009,01,17,08,22,-2.60
2009,01,17,08,23,-2.60
2009,01,17,08,24,-2.60
2009,01,17,08,25,-2.60
2009,01,17,08,26,-2.60
2009,01,17,08,27,-2.60
2009,01,17,08,28,-2.60
2009,01,17,08,29,-2.60
2009,01,17,08,30,-2.60
2009,01,17,08,31,-2.60
2009,01,17,08,32,-2.60
2009,01,17,08,33,-2.60
2009,01,17,08,34,-2.60
2009,01,17,08,35,-2.60
2009,01,17,08,36,-2.60
2009,01,17,08,37,-2.60
2009,01,17,08,38,-2.60
2009,01,17,08,39,-2.60
2009,01,17,08,40,-2.60
2009,01,17,08,41,-2.60
2009,01,17,08,42,-2.60
2009,01,17,08,43,-2.60
2009,01,17,08,44,-2.60
2009,01,17,08,45,-2.60
2009,01,17,08,46,-2.60
2009,01,17,08,47,-2.60
2009,01,17,08,48,-2.60
2009,01,17,08,49,-2.60
2009,01,17,08,50,-2.60
2009,01,17,08,51,-2.60
2009,01,17,08,52,-2.50
2009,01,17,08,53,-2.50
2009,01,17,08,54,-2.50
2009,01,17,08,55,-2.40
2009,01,17,08,56,-2.40
2009,01,17,08,57,-2.40
2009,01,17,08,58,-2.40
2009,01,17,08,59,-2.30
2009,01,17,09,00,-2.30
2009,01,17,09,01,-2.20
2009,01,17,09,02,-2.20
2009,01,17,09,03,-2.20
2009,01,17,09,04,-2.20
2009,01,17,09,05,-2.10
2009,01,17,09,06,-2.10
2009,01,17,09,07,-2.00
2009,01,17,09,08,-1.90
2009,01,17,09,09,-1.90
2009,01,17,09,10,-1.90
2009,01,17,09,11,-1.80
2009,01,17,09,12,-1.80
2009,01,17,09,13,-1.70
2009,01,17,09,14,-1.70
2009,01,17,09,15,-1.70
2009,01,17,09,16,-1.70
2009,01,17,09,17,-1.60
2009,01,17,09,18,-1.60
2009,01,17,09,19,-1.60
2009,01,17,09,20,-1.60
2009,01,17,09,21,-1.60
2009,01,17,09,22,-1.50
2009,01,17,09,23,-1.50
2009,01,17,09,24,-1.50
2009,01,17,09,25,-1.50
2009,01,17,09,26,-1.40
2009,01,17,09,27,-1.40
2009,01,17,09,28,-1.40
2009,01,17,09,29,-1.40
2009,01,17,09,30,-1.40
2009,01,17,09,31,-1.40
2009,01,17,09,32,-1.40
2009,01,17,09,33,-1.40
2009,01,17,09,34,-1.40
2009,01,17,09,35,-1.40
2009,01,17,09,36,-1.40
2009,01,17,09,37,-1.30
2009,01,17,09,38,-1.30
2009,01,17,09,39,-1.30
2009,01,17,09,40,-1.30
2009,01,17,09,41,-1.30
2009,01,17,09,42,-1.20
2009,01,17,09,43,-1.20
2009,01,17,09,44,-1.20
2009,01,17,09,45,-1.20
2009,01,17,09,46,-1.10
2009,01,17,09,47,-1.10
2009,01,17,09,48,-1.00
2009,01,17,09,49,-1.00
2009,01,17,09,50,-0.90
2009,01,17,09,51,-0.80
2009,01,17,09,52,-0.70
2009,01,17,09,53,-0.70
2009,01,17,09,54,-0.60
2009,01,17,09,55,-0.50
2009,01,17,09,56,-0.50
2009,01,17,09,57,-0.40
2009,01,17,09,58,-0.30
2009,01,17,09,59,-0.20
2009,01,17,10,00,-0.10
2009,01,17,10,01,0.00
2009,01,17,10,02,0.10
2009,01,17,10,03,0.20
2009,01,17,10,04,0.30
2009,01,17,10,05,0.40
2009,01,17,10,06,0.50
2009,01,17,10,07,0.60
2009,01,17,10,08,0.60
2009,01,17,10,09,0.70
2009,01,17,10,10,0.80
2009,01,17,10,11,0.90
2009,01,17,10,12,0.90
2009,01,17,10,13,1.00
2009,01,17,10,14,1.10
2009,01,17,10,15,1.10
2009,01,17,10,16,1.20
2009,01,17,10,17,1.30
2009,01,17,10,18,1.30
2009,01,17,10,19,1.30
2009,01,17,10,20,1.40
2009,01,17,10,21,1.50
2009,01,17,10,22,1.60
2009,01,17,10,23,1.60
2009,01,17,10,24,1.70
2009,01,17,10,25,1.80
2009,01,17,10,26,1.80
2009,01,17,10,27,1.90
2009,01,17,10,28,2.00
2009,01,17,10,29,2.10
2009,01,17,10,30,2.10
2009,01,17,10,31,2.20
2009,01,17,10,32,2.30
2009,01,17,10,33,2.40
2009,01,17,10,34,2.40
2009,01,17,10,35,2.50
2009,01,17,10,36,2.60
2009,01,17,10,37,2.70
2009,01,17,10,38,2.70
2009,01,17,10,39,2.70
2009,01,17,10,40,2.70
2009,01,17,10,41,2.70
2009,01,17,10,42,2.60
2009,01,17,10,43,2.60
2009,01,17,10,44,2.60
2009,01,17,10,45,2.60
2009,01,17,10,46,2.60
2009,01,17,10,47,2.50
2009,01,17,10,48,2.50
2009,01,17,10,49,2.40
2009,01,17,10,50,2.40
2009,01,17,10,51,2.30
2009,01,17,10,52,2.30
2009,01,17,10,53,2.30
2009,01,17,10,54,2.30
2009,01,17,10,55,2.30
2009,01,17,10,56,2.40
2009,01,17,10,57,2.40
2009,01,17,10,58,2.50
2009,01,17,10,59,2.60
2009,01,17,11,00,2.70
2009,01,17,11,01,2.80
2009,01,17,11,02,2.90
2009,01,17,11,03,2.90
2009,01,17,11,04,3.00
2009,01,17,11,05,3.00
2009,01,17,11,06,3.00
2009,01,17,11,07,3.10
2009,01,17,11,08,3.10
2009,01,17,11,09,3.10
2009,01,17,11,10,3.10
2009,01,17,11,11,3.10
2009,01,17,11,12,3.10
2009,01,17,11,13,3.10
2009,01,17,11,14,3.10
2009,01,17,11,15,3.20
2009,01,17,11,16,3.20
2009,01,17,11,17,3.20
2009,01,17,11,18,3.30
2009,01,17,11,19,3.30
2009,01,17,11,20,3.30
2009,01,17,11,21,3.40
2009,01,17,11,22,3.40
2009,01,17,11,23,3.40
2009,01,17,11,24,3.50
2009,01,17,11,25,3.50
2009,01,17,11,26,3.50
2009,01,17,11,27,3.60
2009,01,17,11,28,3.50
2009,01,17,11,29,3.50
2009,01,17,11,30,3.50
2009,01,17,11,31,3.50
2009,01,17,11,32,3.50
2009,01,17,11,33,3.50
2009,01,17,11,34,3.50
2009,01,17,11,35,3.50
2009,01,17,11,36,3.60
2009,01,17,11,37,3.70
2009,01,17,11,38,3.70
2009,01,17,11,39,3.80
2009,01,17,11,40,3.80
2009,01,17,11,41,3.90
2009,01,17,11,42,4.00
2009,01,17,11,43,4.00
2009,01,17,11,44,4.10
2009,01,17,11,45,4.20
2009,01,17,11,46,4.30
2009,01,17,11,47,4.40
2009,01,17,11,48,4.40
2009,01,17,11,49,4.50
2009,01,17,11,50,4.70
2009,01,17,11,51,4.80
2009,01,17,11,52,4.90
2009,01,17,11,53,5.00
2009,01,17,11,54,5.00
2009,01,17,11,55,5.10
2009,01,17,11,56,5.10
2009,01,17,11,57,5.10
2009,01,17,11,58,5.10
2009,01,17,11,59,5.20
2009,01,17,12,00,5.20
2009,01,17,12,01,5.30
2009,01,17,12,02,5.30
2009,01,17,12,03,5.40
2009,01,17,12,04,5.50
2009,01,17,12,05,5.50
2009,01,17,12,06,5.60
2009,01,17,12,07,5.70
2009,01,17,12,08,5.80
2009,01,17,12,09,5.80
2009,01,17,12,10,5.90
2009,01,17,12,11,6.00
2009,01,17,12,12,6.10
2009,01,17,12,13,6.20
2009,01,17,12,14,6.30
2009,01,17,12,15,6.30
2009,01,17,12,16,6.40
2009,01,17,12,17,6.50
2009,01,17,12,18,6.60
2009,01,17,12,19,6.60
2009,01,17,12,20,6.70
2009,01,17,12,21,6.80
2009,01,17,12,22,6.90
2009,01,17,12,23,6.90
2009,01,17,12,24,7.00
2009,01,17,12,25,7.00
2009,01,17,12,26,7.10
2009,01,17,12,27,7.10
2009,01,17,12,28,7.10
2009,01,17,12,29,7.20
2009,01,17,12,30,7.20
2009,01,17,12,31,7.20
2009,01,17,12,32,7.20
2009,01,17,12,33,7.20
2009,01,17,12,34,7.30
2009,01,17,12,35,7.30
2009,01,17,12,36,7.30
2009,01,17,12,37,7.30
2009,01,17,12,38,7.40
2009,01,17,12,39,7.40
2009,01,17,12,40,7.40
2009,01,17,12,41,7.50
2009,01,17,12,42,7.50
2009,01,17,12,43,7.60
2009,01,17,12,44,7.60
2009,01,17,12,45,7.60
2009,01,17,12,46,7.70
2009,01,17,12,47,7.70
2009,01,17,12,48,7.70
2009,01,17,12,49,7.80
2009,01,17,12,50,7.80
2009,01,17,12,51,7.80
2009,01,17,12,52,7.90
2009,01,17,12,53,7.90
2009,01,17,12,54,7.90
2009,01,17,12,55,8.00
2009,01,17,12,56,8.00
2009,01,17,12,57,8.10
2009,01,17,12,58,8.10
2009,01,17,12,59,8.10
2009,01,17,13,00,8.10
2009,01,17,13,01,8.20
2009,01,17,13,02,8.20
2009,01,17,13,03,8.20
2009,01,17,13,04,8.30
2009,01,17,13,05,8.30
2009,01,17,13,06,8.40
2009,01,17,13,07,8.40
2009,01,17,13,08,8.50
2009,01,17,13,09,8.60
2009,01,17,13,10,8.60
2009,01,17,13,11,8.70
2009,01,17,13,12,8.70
2009,01,17,13,13,8.70
2009,01,17,13,14,8.80
2009,01,17,13,15,8.80
2009,01,17,13,16,8.90
2009,01,17,13,17,9.00
2009,01,17,13,18,9.10
2009,01,17,13,19,9.10
2009,01,17,13,20,9.10
2009,01,17,13,21,9.10
2009,01,17,13,22,9.10
2009,01,17,13,23,9.10
2009,01,17,13,24,9.10
2009,01,17,13,25,9.10
2009,01,17,13,26,9.00
2009,01,17,13,27,9.00
2009,01,17,13,28,8.90
2009,01,17,13,29,8.90
2009,01,17,13,30,8.90
2009,01,17,13,31,8.90
2009,01,17,13,32,8.90
2009,01,17,13,33,9.00
2009,01,17,13,34,9.00
2009,01,17,13,35,9.10
2009,01,17,13,36,9.20
2009,01,17,13,37,9.20
2009,01,17,13,38,9.30
2009,01,17,13,39,9.30
2009,01,17,13,40,9.40
2009,01,17,13,41,9.40
2009,01,17,13,42,9.40
2009,01,17,13,43,9.40
2009,01,17,13,44,9.50
2009,01,17,13,45,9.50
2009,01,17,13,46,9.60
2009,01,17,13,47,9.60
2009,01,17,13,48,9.60
2009,01,17,13,49,9.70
2009,01,17,13,50,9.80
2009,01,17,13,51,9.90
2009,01,17,13,52,10.00
2009,01,17,13,53,10.00
2009,01,17,13,54,10.10
2009,01,17,13,55,10.10
2009,01,17,13,56,10.20
2009,01,17,13,57,10.30
2009,01,17,13,58,10.30
2009,01,17,13,59,10.40
2009,01,17,14,00,10.40
2009,01,17,14,01,10.40
2009,01,17,14,02,10.50
2009,01,17,14,03,10.50
2009,01,17,14,04,10.60
2009,01,17,14,05,10.60
2009,01,17,14,06,10.60
2009,01,17,14,07,10.60
2009,01,17,14,08,10.50
2009,01,17,14,09,10.50
2009,01,17,14,10,10.50
2009,01,17,14,11,10.40
2009,01,17,14,12,10.50
2009,01,17,14,13,10.40
2009,01,17,14,14,10.40
2009,01,17,14,15,10.40
2009,01,17,14,16,10.40
2009,01,17,14,17,10.40
2009,01,17,14,18,10.40
2009,01,17,14,19,10.40
2009,01,17,14,20,10.40
2009,01,17,14,21,10.40
2009,01,17,14,22,10.30
2009,01,17,14,23,10.30
2009,01,17,14,24,10.20
2009,01,17,14,25,10.10
2009,01,17,14,26,10.00
2009,01,17,14,27,10.00
2009,01,17,14,28,9.90
2009,01,17,14,29,9.90
2009,01,17,14,30,9.70
2009,01,17,14,31,9.60
2009,01,17,14,32,9.60
2009,01,17,14,33,9.60
2009,01,17,14,34,9.60
2009,01,17,14,35,9.50
2009,01,17,14,36,9.50
2009,01,17,14,37,9.40
2009,01,17,14,38,9.40
2009,01,17,14,39,9.30
2009,01,17,14,40,9.20
2009,01,17,14,41,9.20
2009,01,17,14,42,9.10
2009,01,17,14,43,9.10
2009,01,17,14,44,9.00
2009,01,17,14,45,8.90
2009,01,17,14,46,8.90
2009,01,17,14,47,8.80
2009,01,17,14,48,8.80
2009,01,17,14,49,8.80
2009,01,17,14,50,8.70
2009,01,17,14,51,8.70
2009,01,17,14,52,8.70
2009,01,17,14,53,8.70
2009,01,17,14,54,8.80
2009,01,17,14,55,8.80
2009,01,17,14,56,8.80
2009,01,17,14,57,8.80
2009,01,17,14,58,8.90
2009,01,17,14,59,8.90
2009,01,17,15,00,9.00
2009,01,17,15,01,9.00
2009,01,17,15,02,9.10
2009,01,17,15,03,9.20
2009,01,17,15,04,9.30
2009,01,17,15,05,9.40
2009,01,17,15,06,9.40
2009,01,17,15,07,9.50
2009,01,17,15,08,9.50
2009,01,17,15,09,9.50
2009,01,17,15,10,9.40
2009,01,17,15,11,9.40
2009,01,17,15,12,9.30
2009,01,17,15,13,9.20
2009,01,17,15,14,9.10
2009,01,17,15,15,9.00
2009,01,17,15,16,8.90
2009,01,17,15,17,8.80
2009,01,17,15,18,8.70
2009,01,17,15,19,8.70
2009,01,17,15,20,8.60
2009,01,17,15,21,8.50
2009,01,17,15,22,8.50
2009,01,17,15,23,8.40
2009,01,17,15,24,8.30
2009,01,17,15,25,8.30
2009,01,17,15,26,8.20
2009,01,17,15,27,8.20
2009,01,17,15,28,8.10
2009,01,17,15,29,8.10
2009,01,17,15,30,8.00
2009,01,17,15,31,7.90
2009,01,17,15,32,7.90
2009,01,17,15,33,7.80
2009,01,17,15,34,7.70
2009,01,17,15,35,7.60
2009,01,17,15,36,7.60
2009,01,17,15,37,7.50
2009,01,17,15,38,7.40
2009,01,17,15,39,7.30
2009,01,17,15,40,7.30
2009,01,17,15,41,7.20
2009,01,17,15,42,7.20
2009,01,17,15,43,7.20
2009,01,17,15,44,7.10
2009,01,17,15,45,7.10
2009,01,17,15,46,7.00
2009,01,17,15,47,7.00
2009,01,17,15,48,6.90
2009,01,17,15,49,6.90
2009,01,17,15,50,6.80
2009,01,17,15,51,6.70
2009,01,17,15,52,6.70
2009,01,17,15,53,6.60
2009,01,17,15,54,6.60
2009,01,17,15,55,6.50
2009,01,17,15,56,6.40
2009,01,17,15,57,6.40
2009,01,17,15,58,6.30
2009,01,17,15,59,6.30
2009,01,17,16,00,6.20
2009,01,17,16,01,6.10
2009,01,17,16,02,6.10
2009,01,17,16,03,6.00
2009,01,17,16,04,6.00
2009,01,17,16,05,5.90
2009,01,17,16,06,5.80
2009,01,17,16,07,5.70
2009,01,17,16,08,5.60
2009,01,17,16,09,5.50
2009,01,17,16,10,5.50
2009,01,17,16,11,5.40
2009,01,17,16,12,5.30
2009,01,17,16,13,5.20
2009,01,17,16,14,5.10
2009,01,17,16,15,5.00
2009,01,17,16,16,5.00
2009,01,17,16,17,4.90
2009,01,17,16,18,4.80
2009,01,17,16,19,4.80
2009,01,17,16,20,4.80
2009,01,17,16,21,4.70
2009,01,17,16,22,4.70
2009,01,17,16,23,4.70
2009,01,17,16,24,4.60
2009,01,17,16,25,4.60
2009,01,17,16,26,4.50
2009,01,17,16,27,4.50
2009,01,17,16,28,4.50
2009,01,17,16,29,4.40
2009,01,17,16,30,4.40
2009,01,17,16,31,4.40
2009,01,17,16,32,4.30
2009,01,17,16,33,4.30
2009,01,17,16,34,4.30
2009,01,17,16,35,4.30
2009,01,17,16,36,4.20
2009,01,17,16,37,4.20
2009,01,17,16,38,4.20
2009,01,17,16,39,4.10
2009,01,17,16,40,4.10
2009,01,17,16,41,4.00
2009,01,17,16,42,4.00
2009,01,17,16,43,3.90
2009,01,17,16,44,3.90
2009,01,17,16,45,3.80
2009,01,17,16,46,3.80
2009,01,17,16,47,3.80
2009,01,17,16,48,3.70
2009,01,17,16,49,3.70
2009,01,17,16,50,3.60
2009,01,17,16,51,3.60
2009,01,17,16,52,3.50
2009,01,17,16,53,3.50
2009,01,17,16,54,3.40
2009,01,17,16,55,3.40
2009,01,17,16,56,3.30
2009,01,17,16,57,3.30
2009,01,17,16,58,3.30
2009,01,17,16,59,3.20
2009,01,17,17,00,3.20
2009,01,17,17,01,3.20
2009,01,17,17,02,3.10
2009,01,17,17,03,3.10
2009,01,17,17,04,3.10
2009,01,17,17,05,3.10
2009,01,17,17,06,3.10
2009,01,17,17,07,3.00
2009,01,17,17,08,3.00
2009,01,17,17,09,2.90
2009,01,17,17,10,2.90
2009,01,17,17,11,2.90
2009,01,17,17,12,2.80
2009,01,17,17,13,2.80
2009,01,17,17,14,2.70
2009,01,17,17,15,2.70
2009,01,17,17,16,2.60
2009,01,17,17,17,2.60
2009,01,17,17,18,2.50
2009,01,17,17,19,2.50
2009,01,17,17,20,2.40
2009,01,17,17,21,2.40
2009,01,17,17,22,2.30
2009,01,17,17,23,2.30
2009,01,17,17,24,2.30
2009,01,17,17,25,2.20
2009,01,17,17,26,2.20
2009,01,17,17,27,2.20
2009,01,17,17,28,2.10
2009,01,17,17,29,2.10
2009,01,17,17,30,2.10
2009,01,17,17,31,2.10
2009,01,17,17,32,2.10
2009,01,17,17,33,2.10
2009,01,17,17,34,2.00
2009,01,17,17,35,2.00
2009,01,17,17,36,2.00
2009,01,17,17,37,2.00